Hourly Data Report for December 31, 2018

EUREKA CLIMATE
NUNAVUT
Current Station Operator: ECCC - MSC

79°59'21.000" N
85°56'02.000" W
10.00 m
2401199
71613
NEK

Download Data

Hourly Data (December 2018)
Hourly Data Report for December 31, 2018
TIME
LST
Temp Definition
°C
Dew Point Definition
°C
Rel Hum Definition
%
Precip. Amount Definition
mm

Wind Dir Definition
10's deg

Wind Spd Definition
km/h
Visibility Definition
km
Stn Press Definition
kPa
Hmdx Definition


Wind Chill Definition


Weather Definition


00:00 -29.2 -32.0 77 0.0 10 8   101.74   -37 LegendNANA
01:00 -28.9 -31.7 77 0.0 10 6   101.73   -35 LegendNANA
02:00 -28.5 -31.2 78 0.0 10 5   101.74   -34 LegendNANA
03:00 -28.0 -30.7 78 0.0 11 8   101.72   -36 LegendNANA
04:00 -27.9 -30.5 78 0.0 8 9   101.72   -36 LegendNANA
05:00 -27.8 -30.4 78 0.0 7 8   101.71   -35 LegendNANA
06:00 -27.7 -30.3 79 0.0 10 8   101.68   -35 LegendNANA
07:00 -27.7 -30.3 78 0.0 7 9   101.64   -36 LegendNANA
08:00 -28.8 -31.5 77 0.0 9 10   101.62   -38 LegendNANA
09:00 -29.6 -32.4 77 0.0 5 7   101.60   -37 LegendNANA
10:00 -28.8 -31.5 78 0.0 6 9   101.56   -37 LegendNANA
11:00 -28.3 -30.9 79 0.0 7 5   101.53   -34 LegendNANA
12:00 -27.8 -30.4 79 0.0 3 6   101.49   -34 LegendNANA
13:00 -26.2 -28.6 80 0.0 7 2   101.46   -28 LegendNANA
14:00 -24.3 -26.5 82 0.0 18 9   101.42   -32 LegendNANA
15:00 -23.5 -25.6 82 0.0 14 22   101.37   -35 LegendNANA
16:00 -22.9 -25.0 83 0.0 14 26   101.34   -36 LegendNANA
17:00 -22.2 -24.1 84 0.0 13 35   101.30   -36 LegendNANA
18:00 -21.6 -23.5 85 0.0 12 35   101.24   -36 LegendNANA
19:00 -21.1 -22.9 85 0.0 13 38   101.21   -35 LegendNANA
20:00 -20.6 -22.4 85 0.0 14 35   101.17   -34 LegendNANA
21:00 -20.5 -22.3 85 0.0 12 33   101.13   -34 LegendNANA
22:00 -20.1 -21.9 86 0.0 12 35   101.11   -34 LegendNANA
23:00 -19.8 -21.5 86 0.0 12 41   101.06   -34 LegendNANA

Notes on Data Quality.

Legend

  • E = Estimated
  • M = Missing
  • NA = Not Available*
  • [empty] = Indicates an unobserved value
Date modified: